Date,TemperatureHighF,TemperatureAvgF,TemperatureLowF,DewpointHighF,DewpointAvgF,DewpointLowF,HumidityHigh,HumidityAvg,HumidityLow,PressureMaxIn,PressureMinIn,WindSpeedMaxMPH,WindSpeedAvgMPH,GustSpeedMaxMPH,PrecipitationSumIn
2013-1-6,46.2,45.1,44.5,45.4,44.3,43.7,97,97,97,30.54,30.45,1,0,4,0.00
2013-1-10,39.1,37.2,33.5,38.2,36.1,32.7,97,96,93,30.09,29.96,2,0,4,0.00
2013-1-11,43.4,37.5,33.3,40.7,36.0,32.0,97,94,88,30.13,30.01,1,0,3,0.01
2013-1-12,39.5,37.6,35.0,37.4,34.8,32.2,97,90,75,30.01,29.87,5,3,13,0.12
2013-1-13,38.4,35.1,31.5,35.5,31.2,28.9,91,86,77,30.18,29.98,3,1,6,0.00
2013-1-14,36.6,33.3,31.0,35.6,31.9,28.7,96,94,91,30.14,29.68,4,1,6,0.16
2013-1-15,37.2,33.6,28.3,33.3,31.2,27.1,96,91,84,29.91,29.68,3,1,8,0.00
2013-1-17,35.0,29.9,24.3,31.9,28.1,23.1,96,93,80,30.12,29.91,2,0,5,0.00
2013-1-18,35.0,30.8,28.7,29.5,28.0,26.9,95,90,79,29.91,29.46,4,2,7,0.00
2013-1-19,32.9,31.0,29.8,31.4,29.2,27.4,95,93,89,29.52,29.43,3,1,7,0.00
2013-1-20,31.8,30.4,29.2,30.3,28.8,27.0,96,93,89,29.50,29.32,2,1,5,0.01
2013-1-21,35.5,30.5,25.2,31.7,28.8,24.0,96,93,85,29.55,29.30,3,0,5,0.04
2013-1-22,35.0,29.7,22.6,33.8,28.5,21.4,97,95,92,29.71,29.54,3,1,6,0.04
2013-1-23,35.3,34.4,33.7,32.9,31.9,30.7,93,91,87,29.84,29.71,3,2,6,0.13
2013-1-24,34.1,33.2,32.5,31.7,31.1,30.5,94,92,88,30.03,29.84,2,1,4,0.00
2013-1-30,52.9,48.2,43.4,46.6,40.9,37.3,96,77,61,30.07,29.65,10,6,22,0.13
2013-1-31,51.3,47.1,43.7,45.7,41.5,38.3,94,81,67,30.07,29.83,9,4,22,0.06
2013-2-1,45.7,41.3,35.8,42.8,39.1,34.5,100,92,84,29.87,29.48,4,1,8,0.18
2013-2-2,42.5,38.5,35.0,37.5,33.0,28.8,96,81,66,30.25,29.63,3,1,10,0.00
2013-3-2,41.2,35.9,29.1,33.1,30.7,27.3,93,82,71,30.35,30.30,0,0,0,0.00
2013-3-3,44.4,35.5,25.4,37.3,31.7,23.9,95,87,73,30.30,30.12,0,0,0,0.00
2013-3-4,51.0,37.2,30.2,39.7,33.6,28.9,100,87,64,30.11,29.75,0,0,0,0.01
2013-3-5,61.0,43.0,29.2,46.3,37.1,27.9,96,81,56,29.75,29.59,0,0,0,0.00
2013-3-6,57.8,48.4,41.1,47.2,43.0,38.2,92,82,65,29.60,29.51,0,0,0,0.02
2013-3-7,50.1,47.3,44.6,48.8,46.1,43.3,97,95,92,29.52,29.38,0,0,0,0.21
2013-3-8,50.0,48.7,47.4,49.2,47.9,46.6,100,97,96,29.56,29.39,0,0,0,0.22
2013-3-9,47.3,43.4,38.2,46.5,42.0,35.5,97,95,90,29.68,29.55,0,0,0,0.01
2013-3-10,39.0,36.5,33.7,35.5,32.7,28.8,91,86,81,29.76,29.67,0,0,0,0.00
2013-3-11,33.7,32.3,29.1,29.4,25.3,20.9,84,76,65,29.76,29.73,0,0,0,0.00
2013-3-12,42.4,33.8,28.1,32.0,23.9,18.8,87,68,45,29.84,29.75,2,0,5,0.00
2013-3-13,45.2,36.7,29.2,31.6,29.1,26.7,92,75,51,29.98,29.82,3,1,6,0.00
2013-3-14,45.7,36.0,25.1,31.8,26.3,23.4,95,70,43,30.05,29.94,3,1,9,0.00
2013-3-15,47.4,42.1,34.8,42.3,38.4,27.7,94,87,75,29.94,29.57,9,5,16,0.16
2013-3-16,45.9,43.1,41.4,43.2,40.7,37.8,95,91,87,29.57,29.29,11,6,20,0.39
2013-3-17,43.3,38.9,31.9,41.6,37.2,30.6,100,94,87,29.34,29.17,6,2,13,0.27
2013-3-18,43.9,37.1,30.3,42.5,36.1,29.3,100,96,91,29.38,29.23,2,0,2,0.32
2013-3-19,48.4,40.7,34.4,41.7,37.3,32.9,97,88,70,29.52,29.38,2,1,6,0.03
2013-3-20,45.5,39.0,34.3,39.0,36.0,32.8,95,89,77,30.02,29.52,2,0,5,0.00
2013-3-21,44.2,40.8,35.5,36.1,35.0,33.4,93,80,68,30.03,29.92,4,3,12,0.06
2013-3-22,44.5,38.9,35.5,38.1,35.6,33.7,95,88,77,29.92,29.73,6,4,14,0.20
2013-3-23,37.8,34.5,32.9,35.5,33.1,31.6,96,95,91,29.88,29.75,4,3,12,0.37
2013-3-24,34.0,32.5,31.2,32.7,28.6,25.0,95,86,71,29.95,29.87,5,3,13,0.01
2013-3-25,34.4,33.7,32.6,27.3,26.2,25.0,78,74,70,29.99,29.93,5,3,13,0.00
2013-3-26,35.2,33.8,32.6,27.3,26.0,25.0,77,73,67,29.96,29.90,4,2,10,0.00
2013-3-27,42.1,34.8,30.2,29.5,26.6,23.9,86,72,57,29.90,29.84,4,1,8,0.00
2013-3-28,39.9,35.2,28.3,31.3,26.7,22.9,92,72,57,29.94,29.85,3,1,6,0.00
2013-3-29,43.4,35.4,27.0,29.2,26.0,23.2,88,70,51,29.92,29.80,4,1,8,0.00
2013-3-30,42.0,36.2,31.7,32.4,29.6,27.2,93,77,58,29.99,29.80,3,1,6,0.00
2013-3-31,42.2,34.6,25.3,31.5,26.7,23.6,95,74,55,30.01,29.92,3,1,9,0.01
2013-4-1,43.8,36.9,32.2,30.1,27.4,23.0,85,69,48,29.91,29.85,6,3,12,0.00
2013-4-2,48.2,37.8,28.8,32.5,25.6,19.3,89,65,33,30.08,29.90,5,2,11,0.00
2013-4-3,40.3,35.1,28.2,31.3,26.2,24.1,93,71,57,30.08,30.01,7,2,14,0.00
2013-4-4,37.5,35.2,32.6,33.7,29.3,25.3,92,79,67,30.01,29.91,5,2,10,0.02
2013-4-5,45.7,38.7,34.4,32.0,29.1,23.9,82,70,44,30.03,29.92,5,3,11,0.00
2013-4-6,50.6,45.0,34.5,31.9,28.9,26.7,79,54,41,30.30,30.24,3,1,5,0.00
2013-4-7,50.7,40.1,28.4,33.0,28.6,22.6,94,66,34,30.30,29.89,5,1,8,0.00
2013-4-8,39.7,38.5,37.8,32.7,30.5,28.7,81,73,68,29.89,29.77,3,2,7,0.00
2013-4-10,49.0,45.9,43.1,42.5,41.8,40.8,95,86,75,29.70,29.43,5,3,13,0.25
2013-4-11,54.9,46.5,42.8,48.1,43.2,-99.9,96,90,73,29.51,29.37,5,-5,13,0.10
2013-4-12,49.6,46.9,44.7,48.1,45.4,43.1,96,94,93,29.45,29.33,5,3,7,0.28
2013-4-13,51.5,48.4,38.1,50.4,46.4,36.5,97,93,83,29.92,29.83,8,5,17,0.11
2013-4-14,66.8,57.0,51.2,52.8,50.2,46.7,96,79,58,29.98,29.90,9,5,13,0.00
2013-4-15,59.6,53.7,48.0,50.6,47.7,44.4,89,80,68,30.09,29.96,6,3,12,0.00
2013-4-16,62.3,53.7,47.6,49.9,46.4,43.9,93,77,52,30.11,29.93,7,4,13,0.00
2013-4-17,64.3,55.0,47.9,53.1,49.5,45.1,96,83,63,30.11,29.81,8,4,12,0.00
2013-4-18,58.2,50.5,45.0,48.3,42.0,36.8,93,73,56,30.11,29.82,8,5,19,0.21
2013-4-19,56.8,49.3,42.5,44.0,40.3,36.8,91,73,48,30.52,30.11,5,2,8,0.01
2013-4-20,59.3,46.1,33.9,39.0,33.5,26.2,96,66,29,30.58,30.39,4,1,7,0.00
2013-4-21,59.6,45.9,30.4,42.4,35.4,28.4,94,70,38,30.39,30.06,5,2,11,0.00
2013-4-22,59.7,49.9,43.2,46.9,43.6,40.9,94,80,52,30.06,29.98,5,2,10,0.00
2013-4-23,70.9,58.5,48.1,51.3,48.2,46.2,94,71,44,30.24,30.01,4,2,11,0.00
2013-4-24,66.6,59.8,50.3,55.3,52.1,46.2,91,76,64,30.29,30.22,4,2,10,0.01
2013-4-25,74.4,59.1,49.5,56.4,50.6,47.7,95,76,43,30.28,30.04,6,2,11,0.00
2013-4-26,57.0,48.2,40.2,47.9,40.3,32.7,94,75,45,30.05,29.92,4,1,7,0.10
2013-4-27,52.7,42.3,35.0,44.6,37.1,32.6,94,82,59,30.13,29.92,4,1,8,0.18
2013-4-28,53.7,43.9,31.1,41.8,35.5,29.7,96,75,48,30.13,29.93,5,2,12,0.00
2013-4-29,58.9,50.8,44.9,43.1,38.5,34.9,90,65,43,30.20,29.92,6,2,11,0.00
2013-4-30,60.4,48.5,36.1,40.4,36.8,33.3,93,67,39,30.33,30.20,4,1,10,0.00
2013-5-1,63.6,49.6,36.6,43.6,37.1,32.8,92,66,32,30.33,30.17,3,1,6,0.00
2013-5-2,65.8,51.8,36.4,37.0,30.6,18.1,85,50,18,30.24,30.17,3,1,8,0.00
2013-5-3,61.6,43.4,36.3,41.7,36.4,33.0,90,77,47,30.20,30.15,2,0,3,0.00
2013-5-5,63.0,58.8,54.2,51.6,49.8,47.5,78,72,66,30.19,30.17,3,1,6,0.00
2013-5-6,72.5,59.5,50.0,53.4,47.6,43.4,89,67,44,30.19,30.07,4,1,7,0.00
2013-5-7,74.8,59.9,42.7,49.7,45.0,40.2,92,62,31,30.10,29.87,4,1,9,0.00
2013-5-8,62.4,55.9,48.3,54.2,50.0,44.9,94,81,66,29.87,29.71,6,2,12,0.04
2013-5-9,57.1,49.3,42.7,48.0,43.6,40.3,93,82,55,29.86,29.70,9,4,22,0.06
2013-5-10,63.7,54.1,47.8,50.4,47.1,44.6,90,78,54,29.96,29.71,8,4,13,0.02
2013-5-11,56.4,49.1,41.7,51.8,44.2,39.5,95,84,59,29.95,29.83,7,3,14,0.27
2013-5-12,59.4,49.4,40.6,50.4,44.1,39.0,100,83,50,30.04,29.93,6,3,11,0.03
2013-5-13,59.6,52.4,46.3,50.3,44.1,38.1,95,75,47,29.95,29.83,8,4,18,0.02
2013-5-14,52.6,47.4,43.6,47.2,43.2,40.0,95,86,66,29.85,29.21,12,3,24,0.28
2013-5-15,57.1,47.2,42.1,45.2,41.1,37.6,93,80,57,29.57,29.16,12,4,21,0.12
2013-5-16,60.7,49.5,37.2,47.3,40.5,35.9,97,74,47,29.58,29.49,5,1,9,0.00
2013-5-17,53.9,47.7,39.2,45.4,42.3,37.3,95,82,69,29.84,29.58,2,0,5,0.00
2013-5-18,60.3,53.2,45.6,46.8,45.0,42.8,91,75,58,29.83,29.74,3,1,8,0.00
2013-5-19,66.8,56.4,46.5,51.0,47.5,43.9,92,74,54,29.92,29.80,3,1,8,0.00
2013-5-20,62.1,56.7,50.4,57.9,52.9,47.6,92,87,82,29.93,29.87,1,0,3,0.02
2013-5-21,60.0,56.2,51.8,56.3,51.5,48.2,90,84,75,30.10,29.93,2,0,6,0.00
2013-5-22,58.9,52.6,46.8,50.2,45.2,36.5,91,77,54,30.12,30.04,3,1,9,0.00
2013-5-23,53.1,46.5,41.3,41.1,37.7,33.2,83,72,50,30.04,29.91,4,2,8,0.02
2013-5-24,47.6,43.7,41.1,45.5,40.5,36.4,94,89,79,30.03,29.65,6,2,15,0.25
2013-5-25,59.7,49.8,41.1,44.1,41.1,39.2,95,74,48,30.19,30.04,2,0,6,0.00
2013-5-26,69.3,55.1,40.2,44.4,40.7,37.2,91,62,35,30.16,29.99,4,1,7,0.00
2013-5-27,64.1,53.8,40.8,45.8,40.8,32.2,90,63,33,29.98,29.64,9,3,22,0.00
2013-5-28,52.1,50.1,48.2,50.0,47.5,43.4,95,91,75,29.64,29.50,2,0,8,0.54
2013-5-29,56.6,51.0,43.7,52.2,48.1,42.3,98,90,76,29.79,29.58,2,0,4,0.01
2013-5-30,58.4,54.3,51.8,54.1,51.6,49.6,96,91,83,30.02,29.77,2,0,4,0.14
2013-5-31,71.1,59.6,51.8,57.4,52.4,48.8,90,78,55,30.14,30.01,1,0,4,0.00
2013-6-1,67.5,57.6,48.7,51.2,46.1,42.6,86,67,47,30.33,30.14,3,1,6,0.00
2013-6-2,65.9,56.3,45.9,47.2,44.0,42.3,90,66,43,30.45,30.32,2,1,7,0.00
2013-6-3,67.7,56.3,44.0,48.5,44.5,41.5,93,67,41,30.50,30.41,3,1,7,0.00
2013-6-4,71.3,57.6,41.9,48.8,43.9,38.9,89,63,39,30.44,30.22,4,2,12,0.00
2013-6-5,72.2,57.9,47.8,50.8,46.8,43.3,87,69,43,30.24,30.09,3,2,8,0.00
2013-6-6,73.7,59.7,47.2,54.1,48.7,44.0,89,69,49,30.20,30.13,4,2,9,0.00
2013-6-7,69.9,58.3,49.4,56.4,49.6,44.5,92,74,50,30.24,30.17,5,2,10,0.08
2013-6-8,66.3,56.9,47.5,49.8,46.4,43.8,87,69,51,30.23,30.07,4,2,9,0.00
2013-6-9,59.1,54.4,50.6,48.3,46.2,44.0,81,74,64,30.08,29.98,4,2,11,0.00
2013-6-10,60.3,54.0,47.2,48.9,45.3,42.4,87,72,60,30.03,29.97,3,1,6,0.00
2013-6-11,61.9,55.3,45.6,59.6,52.0,42.4,93,89,85,29.99,29.91,6,2,10,0.01
2013-6-12,61.6,58.7,55.2,59.0,55.8,52.0,94,90,84,29.92,29.82,6,4,16,0.05
2013-6-13,64.4,57.4,52.4,55.4,51.1,45.8,92,80,60,30.06,29.80,8,4,16,0.01
2013-6-14,67.1,56.4,45.9,52.6,48.2,42.9,93,76,45,30.09,29.82,7,3,14,0.00
2013-6-15,63.3,58.1,52.9,54.5,50.8,45.9,89,77,58,29.91,29.74,8,4,20,0.09
2013-6-16,64.4,56.6,51.5,53.5,49.8,47.5,92,78,60,29.98,29.90,4,2,7,0.01
2013-6-17,69.4,60.3,53.3,55.2,51.2,48.8,92,73,52,29.98,29.91,5,2,11,0.01
2013-6-18,68.4,62.3,55.5,62.0,57.0,51.7,92,83,73,29.99,29.92,5,1,7,0.00
2013-6-19,78.9,67.4,58.0,63.2,59.7,56.0,95,78,50,30.00,29.92,3,0,4,0.00
2013-6-20,67.6,64.0,57.5,62.1,59.4,54.1,90,85,78,29.96,29.81,3,1,8,0.00
2013-6-21,71.6,61.4,55.8,61.6,57.1,53.1,94,86,69,29.90,29.79,4,2,10,0.00
2013-6-22,64.9,57.4,52.3,57.7,52.7,50.1,95,85,69,29.89,29.68,8,4,18,0.06
2013-6-23,63.7,57.8,53.0,54.0,52.1,50.5,93,82,66,30.05,29.68,6,3,15,0.00
2013-6-24,62.5,56.1,49.2,50.5,47.2,44.0,91,73,55,30.32,30.05,4,1,7,0.00
2013-6-25,70.9,59.2,49.2,49.5,47.5,44.8,91,67,42,30.44,30.32,2,0,4,0.00
2013-6-26,70.2,60.4,47.4,53.5,49.5,44.9,92,69,51,30.46,30.37,3,0,8,0.00
2013-6-27,68.5,59.2,51.7,54.3,49.8,46.8,93,72,49,30.40,30.20,3,1,6,0.03
2013-6-28,70.8,61.3,53.8,64.9,57.9,51.8,95,89,75,30.20,30.07,4,1,11,0.01
2013-6-29,72.5,63.7,55.1,57.5,51.4,47.6,92,66,44,30.27,30.10,3,1,10,0.00
2013-6-30,79.9,67.8,57.6,61.7,57.4,52.1,92,71,47,30.26,30.08,5,2,11,0.00
2013-7-1,70.3,62.1,54.8,53.4,51.1,48.2,89,68,48,30.09,30.00,5,2,10,0.00
2013-7-2,62.0,57.1,50.9,54.7,51.0,47.3,88,80,66,30.02,29.68,6,2,15,0.00
2013-7-3,69.3,61.5,57.3,59.1,56.3,52.7,98,84,67,30.04,29.63,4,2,9,0.06
2013-7-4,74.1,63.7,52.9,63.5,57.3,50.0,93,80,61,30.28,30.04,4,2,9,0.00
2013-7-5,79.7,64.7,50.5,60.9,54.4,48.3,94,72,44,30.43,30.28,5,1,8,0.00
2013-7-6,80.7,64.5,51.9,61.2,55.1,49.4,92,74,44,30.43,30.35,3,0,7,0.00
2013-7-7,85.9,72.0,57.5,62.1,57.4,53.6,93,64,34,30.51,30.42,3,1,6,0.00
2013-7-8,82.4,69.7,57.2,61.0,56.3,53.0,89,65,41,30.53,30.42,4,2,9,0.00
2013-7-9,81.6,68.4,55.4,57.3,48.8,41.3,83,54,25,30.45,30.26,3,1,8,0.00
2013-7-10,77.0,65.5,53.2,59.6,53.4,48.8,86,66,49,30.30,30.23,4,1,8,0.00
2013-7-11,74.2,62.0,52.7,52.8,48.6,45.2,81,63,42,30.31,30.22,3,1,7,0.00
2013-7-12,75.7,63.8,53.5,57.5,53.6,49.6,87,71,52,30.32,30.24,2,1,5,0.00
2013-7-13,89.2,72.8,56.9,66.9,60.1,54.0,91,68,39,30.26,30.20,4,1,9,0.00
2013-7-14,86.8,73.9,61.6,64.8,59.6,56.7,87,64,39,30.26,30.17,2,0,5,0.00
2013-7-15,87.7,74.1,60.5,59.7,53.6,45.1,81,53,25,30.24,30.17,2,0,4,0.00
2013-7-16,86.8,74.3,61.4,62.9,58.2,55.8,84,60,38,30.22,30.16,2,0,9,0.00
2013-7-17,88.9,74.1,61.0,64.2,58.7,55.1,83,61,38,30.28,30.19,4,1,8,0.00
2013-7-18,85.6,73.2,61.3,61.0,58.1,55.9,86,62,38,30.32,30.25,3,1,9,0.00
2013-7-19,83.6,70.4,56.3,60.4,55.8,50.6,82,62,40,30.31,30.20,5,2,10,0.00
2013-7-20,76.4,67.3,60.5,61.0,58.9,56.3,89,75,58,30.25,30.15,4,2,11,0.00
2013-7-21,81.2,69.2,61.7,63.3,59.1,54.2,84,71,50,30.18,30.02,3,1,8,0.00
2013-7-22,91.5,75.2,63.8,67.5,62.4,59.5,89,67,37,30.06,29.94,6,1,10,0.00
2013-7-23,83.7,72.0,63.5,71.0,64.0,57.6,94,77,56,29.95,29.89,5,1,8,0.10
2013-7-24,80.9,68.0,57.2,62.0,58.5,54.6,92,73,46,29.99,29.93,5,2,9,0.00
2013-7-25,78.1,67.6,59.8,65.8,60.6,55.0,95,79,53,29.95,29.89,6,2,13,0.17
2013-7-26,79.8,67.4,55.4,60.1,55.9,52.1,94,69,49,29.94,29.86,4,1,7,0.00
2013-7-27,82.6,66.0,55.0,64.4,56.5,50.8,94,74,40,29.87,29.60,4,1,8,0.22
2013-7-28,74.7,65.3,57.1,61.6,58.4,55.5,96,80,58,29.79,29.62,8,3,12,0.19
2013-7-29,73.0,67.0,58.6,62.0,58.8,55.8,94,76,59,29.99,29.78,6,3,17,0.16
2013-7-30,67.8,61.9,57.7,64.8,59.9,56.2,96,93,87,29.99,29.87,4,1,8,0.08
2013-7-31,73.6,65.6,59.3,66.3,61.3,57.2,93,86,75,30.02,29.96,7,2,11,0.00
2013-8-1,90.0,74.8,60.2,68.9,63.5,58.3,95,71,42,29.95,29.69,7,2,13,0.00
2013-8-2,77.8,67.6,62.0,64.8,59.9,55.0,92,78,51,29.84,29.75,5,2,14,0.05
2013-8-3,75.6,65.1,57.5,59.6,56.6,53.7,95,76,50,30.12,29.82,7,3,14,0.00
2013-8-4,73.1,64.8,56.9,58.8,56.6,54.6,94,76,56,30.13,30.04,7,3,15,0.00
2013-8-5,71.4,64.3,59.7,62.1,59.0,56.7,95,84,64,30.04,29.77,6,2,14,0.14
2013-8-6,73.9,62.8,52.0,57.7,53.3,49.3,97,74,43,30.06,29.93,3,0,6,0.01
2013-8-7,72.8,63.0,53.8,57.4,52.2,49.2,93,70,47,30.05,29.92,2,1,6,0.00
2013-8-8,76.9,63.6,50.0,57.8,52.4,47.5,92,69,42,30.14,30.05,4,1,10,0.00
2013-8-9,76.9,66.2,60.2,62.8,55.8,48.6,95,71,44,30.20,30.05,4,2,10,0.06
2013-8-10,72.4,66.0,58.5,53.5,50.8,47.3,78,59,43,30.22,30.15,4,1,7,0.00
2013-8-11,75.4,65.1,59.6,58.4,53.3,48.9,87,67,42,30.15,30.02,5,2,15,0.00
2013-8-12,71.2,61.6,54.2,54.3,49.4,45.6,87,66,42,30.11,30.02,4,1,9,0.00
2013-8-13,70.9,58.6,48.3,56.3,50.4,45.2,92,76,45,30.23,30.11,4,1,8,0.01
2013-8-14,73.3,65.7,53.8,59.4,57.2,51.4,94,75,55,30.24,30.17,4,2,12,0.04
2013-8-15,74.5,66.4,61.0,63.8,61.0,57.3,95,83,65,30.17,30.02,5,3,15,0.00
2013-8-16,71.3,64.6,60.4,64.3,60.9,57.2,93,88,77,30.03,29.95,5,2,10,0.04
2013-8-17,66.9,60.6,55.1,60.3,56.7,53.4,95,87,71,30.00,29.75,7,3,13,0.02
2013-8-18,75.1,64.7,58.1,61.0,58.3,51.8,95,81,50,29.92,29.74,6,2,12,0.02
2013-8-19,73.0,62.6,52.9,54.6,51.2,48.7,90,68,47,30.33,29.93,2,1,9,0.00
2013-8-20,75.7,63.0,51.2,55.4,51.8,48.1,92,69,44,30.38,30.31,3,0,7,0.00
2013-8-21,79.3,65.4,52.1,58.1,54.0,49.6,93,70,41,30.33,30.16,4,1,8,0.00
2013-8-22,62.9,61.1,60.4,60.8,59.2,57.7,96,94,83,30.17,30.12,1,0,1,0.30
2013-8-27,73.7,60.6,50.3,57.9,51.8,48.3,95,75,46,30.14,30.06,2,0,3,0.00
2013-8-28,74.8,62.0,49.6,56.7,52.1,46.9,93,73,43,30.24,30.14,1,0,5,0.00
2013-8-29,76.5,64.3,54.9,59.1,55.3,51.9,93,75,47,30.22,30.14,3,1,7,0.00
2013-8-30,77.2,66.6,56.7,61.2,58.2,54.4,93,76,53,30.17,30.06,5,2,11,0.00
2013-8-31,70.1,61.8,51.5,59.4,49.2,42.9,93,66,40,30.42,30.14,2,0,9,0.00
2013-9-1,69.9,57.8,44.9,52.0,47.4,41.4,88,70,48,30.47,30.36,3,1,9,0.00
2013-9-2,77.8,63.5,49.9,59.7,54.9,47.7,93,75,52,30.38,30.30,3,1,8,0.00
2013-9-3,76.3,64.3,54.2,63.8,58.3,52.2,95,82,60,30.38,30.28,2,0,4,0.00
2013-9-4,83.0,66.1,52.6,63.4,56.2,50.7,95,74,38,30.28,30.01,4,1,10,0.00
2013-9-5,84.5,67.0,53.1,63.6,56.1,49.6,94,71,42,30.01,29.77,3,0,6,0.00
2013-9-6,62.2,58.5,52.8,57.3,53.3,48.8,93,83,70,29.85,29.71,4,1,8,0.06
2013-9-7,64.9,55.2,49.3,53.4,49.3,46.5,93,81,59,30.06,29.85,6,2,17,0.04
2013-9-8,61.5,50.6,44.9,51.9,47.4,43.0,96,89,60,30.09,30.06,5,1,7,0.36
2013-9-9,57.9,51.9,46.6,56.2,50.6,45.2,97,95,94,30.08,29.98,2,0,4,0.18
2013-9-10,61.6,54.1,46.6,52.5,49.3,45.5,96,85,68,30.18,30.08,3,0,5,0.01
2013-9-11,62.5,56.5,52.1,54.3,50.9,47.2,95,82,67,30.20,30.13,2,0,3,0.09
2013-9-12,66.5,58.6,53.9,58.6,55.6,52.5,96,90,71,30.14,30.08,3,1,6,0.03
2013-9-13,67.3,62.2,60.0,64.2,60.7,58.6,97,95,88,30.08,29.88,3,1,7,0.55
2013-9-14,60.9,51.5,47.0,59.8,49.9,45.6,96,94,89,30.10,29.88,2,0,4,0.08
2013-9-15,59.5,51.6,42.3,58.4,49.1,41.0,98,91,72,30.09,29.57,6,2,13,0.05
2013-9-16,52.7,47.0,44.2,49.5,43.6,41.6,91,88,83,29.66,29.64,4,2,8,0.00
2013-9-27,63.7,58.3,51.4,53.8,51.3,49.0,93,78,66,30.04,29.93,3,2,9,0.00
2013-9-28,64.2,57.6,52.1,58.9,53.6,49.9,94,87,73,29.93,29.75,4,2,9,0.02
2013-9-29,65.4,58.7,55.7,55.9,53.2,52.2,89,82,70,29.76,29.72,4,2,11,0.00
2013-9-30,65.3,58.3,53.7,57.9,53.8,50.5,93,85,72,29.79,29.69,3,1,7,0.00
2013-10-1,61.0,56.4,49.9,57.0,52.4,48.0,95,87,78,29.83,29.77,3,1,6,0.00
2013-10-2,68.6,60.5,56.2,62.8,56.9,53.2,94,88,78,29.90,29.80,5,1,10,0.01
2013-10-3,65.1,60.7,55.5,62.6,58.8,54.1,96,93,89,29.88,29.71,4,1,7,0.02
2013-10-4,68.4,62.5,56.7,62.6,59.3,54.7,96,89,78,29.97,29.69,6,2,14,0.02
2013-10-5,66.0,59.1,54.8,58.2,55.8,52.5,95,89,74,30.27,29.96,0,0,0,0.00
2013-10-6,66.5,54.7,45.4,55.0,50.2,44.1,97,86,63,30.32,30.27,0,0,0,0.00
2013-10-7,66.1,57.2,49.2,58.4,53.7,47.8,97,89,72,30.32,30.27,0,0,0,0.01
2013-10-8,68.2,60.6,53.8,59.9,56.9,52.1,96,88,72,30.30,30.25,0,0,0,0.00
2013-10-9,63.2,56.1,45.8,57.1,50.2,39.1,93,81,68,30.26,30.01,0,0,0,0.00
2013-10-10,53.2,47.7,43.3,42.2,39.6,37.3,85,74,62,30.15,30.04,0,0,0,0.00
2013-10-11,55.5,51.2,45.8,52.3,47.8,39.7,95,88,74,30.14,29.99,0,0,0,0.28
2013-10-12,57.3,51.4,45.2,52.3,47.7,43.3,95,87,68,30.14,29.98,0,0,0,0.13
2013-10-13,51.9,49.1,46.1,50.7,47.7,44.5,96,95,93,30.03,29.80,0,0,0,0.37
2013-10-14,52.3,48.2,46.1,49.3,46.5,44.7,96,94,87,29.81,29.73,0,0,0,0.20
2013-10-15,54.1,48.0,41.8,49.5,45.9,40.5,96,93,83,29.98,29.77,0,0,0,0.00
2013-10-16,58.7,48.7,40.7,57.9,47.2,39.4,97,94,87,29.99,29.70,0,0,0,0.13
2013-10-17,62.2,55.1,51.2,57.3,52.7,49.6,96,92,81,30.02,29.85,0,0,0,0.05
2013-10-18,62.0,55.1,48.1,57.8,52.8,46.9,98,92,80,30.04,29.78,0,0,0,0.00
2013-10-19,62.8,57.9,54.2,60.1,55.8,52.5,95,93,89,29.78,29.65,0,0,0,0.08
2013-10-20,60.0,55.8,52.6,57.2,54.0,51.2,96,93,89,29.77,29.65,0,0,0,0.38
2013-10-21,62.5,59.0,53.9,58.6,56.5,52.5,96,92,86,29.77,29.62,0,0,0,0.03
2013-10-22,63.8,60.2,55.0,60.2,57.5,53.0,95,91,87,29.61,29.34,0,0,0,0.31
2013-10-23,62.6,55.9,45.8,56.6,52.2,43.9,95,88,72,29.87,29.27,0,0,0,0.06
2013-10-24,61.7,51.3,41.4,55.4,48.6,40.1,97,91,76,30.00,29.83,0,0,0,0.04
2013-10-25,62.7,59.1,55.1,60.0,56.2,52.8,96,90,84,29.83,29.61,0,0,0,0.06
2013-10-26,60.9,58.6,56.8,56.8,55.0,52.9,93,88,83,29.73,29.51,0,0,0,0.05
2013-10-27,60.3,55.4,50.9,55.1,51.5,47.9,95,87,72,29.52,29.23,0,0,0,0.54
2013-10-28,59.5,52.8,46.0,58.3,49.5,43.2,96,89,73,29.62,28.93,0,0,0,0.57
2013-10-29,55.3,46.3,40.4,47.7,42.3,38.8,94,86,68,30.09,29.62,0,0,0,0.01
2013-10-30,40.2,40.2,40.2,38.6,38.6,38.2,94,94,94,30.09,30.09,0,0,0,0.00
2013-11-6,57.9,57.6,57.4,55.4,55.2,54.9,92,91,90,29.54,29.52,5,4,13,0.03
2013-11-7,57.6,49.3,42.7,55.3,46.1,41.1,94,89,76,29.80,29.55,5,1,12,0.02
2013-11-8,51.9,44.0,40.5,50.4,42.7,38.9,97,95,92,29.80,29.60,4,1,7,0.34
2013-11-9,44.8,40.4,35.6,44.0,39.4,34.6,97,96,95,29.80,29.63,2,0,4,0.18
2013-11-10,48.5,41.0,34.9,42.7,38.4,33.3,96,91,72,30.30,29.64,2,0,3,0.02
2013-11-11,54.5,48.1,35.4,53.7,46.9,33.9,97,95,94,30.28,30.16,7,3,14,0.10
2013-11-12,54.6,48.9,36.5,53.8,47.4,35.2,97,94,84,30.54,30.17,1,0,4,0.05
2013-11-13,50.8,40.5,32.9,45.0,38.1,31.9,100,91,77,30.59,30.24,4,1,7,0.01
2013-11-14,49.0,44.6,37.7,44.6,40.0,35.0,92,84,72,30.44,30.15,5,2,13,0.00
2013-11-15,49.8,39.4,33.8,41.1,35.8,31.9,94,87,71,30.56,30.44,1,0,3,0.00
2013-11-16,50.0,39.6,30.3,44.1,37.4,28.9,96,92,78,30.55,30.40,2,0,3,0.00
2013-11-17,48.1,45.9,44.1,45.6,44.2,42.8,95,94,90,30.40,30.04,1,0,1,0.00
2013-11-18,49.9,46.3,42.3,46.5,44.4,40.5,96,93,86,30.04,29.78,2,0,7,0.01
2013-11-19,43.2,36.9,29.3,40.2,33.0,27.3,93,86,69,30.09,29.82,3,1,9,0.01
2013-11-20,44.6,38.2,27.7,42.4,36.3,25.9,95,93,90,30.07,29.42,5,1,7,0.17
2013-11-21,45.2,40.1,35.1,39.5,36.9,33.1,95,89,70,29.95,29.43,4,1,9,0.02
2013-11-22,46.7,39.1,34.3,39.0,35.6,32.1,94,88,72,30.18,29.95,2,0,5,0.00
2013-11-23,45.8,39.4,32.5,40.2,36.8,31.2,100,91,77,30.33,30.18,1,0,3,0.00
2013-11-24,46.3,42.3,38.4,43.1,39.0,35.7,94,88,81,30.59,30.33,1,0,4,0.00
2013-11-25,44.3,41.0,38.7,39.1,37.4,35.9,93,87,79,30.70,30.58,1,0,3,0.00
2013-11-26,45.0,39.5,30.9,38.3,35.3,29.0,94,85,75,30.74,30.60,1,0,3,0.00
2013-11-27,49.9,45.3,41.8,47.4,43.4,38.2,95,93,87,30.60,30.51,1,0,3,0.02
2013-11-28,49.1,47.0,45.4,46.3,45.0,43.6,95,93,89,30.59,30.54,0,0,1,0.00
2013-11-29,49.8,46.2,42.4,44.2,41.7,37.8,94,85,72,30.54,30.21,6,2,14,0.00
2013-11-30,47.2,41.6,34.9,40.9,37.2,32.8,93,84,77,30.50,30.21,3,1,7,0.00
2013-12-1,48.0,40.5,32.5,44.7,38.3,30.8,95,92,84,30.58,30.48,1,0,1,0.00
2013-12-2,48.2,43.5,39.8,43.8,40.9,37.8,96,91,80,30.59,30.47,1,0,3,0.00
2013-12-3,42.7,41.2,40.0,39.5,37.7,35.6,93,87,81,30.47,30.35,1,0,3,0.00
2013-12-4,46.5,40.4,30.3,43.8,36.9,28.8,94,88,72,30.52,30.33,2,0,5,0.00
2013-12-5,49.9,39.7,29.9,45.4,35.5,28.5,95,85,70,30.51,30.07,10,3,17,0.03
2013-12-6,46.7,40.5,33.8,41.5,35.9,30.4,93,84,70,30.41,30.27,5,1,9,0.00
2013-12-7,48.1,44.6,40.5,44.6,42.3,38.9,100,91,85,30.39,30.29,4,1,9,0.01
2013-12-8,52.4,44.3,38.3,47.0,41.9,36.7,96,92,82,30.35,30.27,6,1,13,0.00
2013-12-9,50.3,42.5,34.3,47.8,40.9,33.0,98,94,88,30.43,30.34,3,0,6,0.00
2013-12-10,46.4,38.1,31.1,45.1,36.8,29.8,97,95,91,30.49,30.43,3,0,5,0.01
2013-12-11,37.9,33.4,30.9,37.1,32.4,30.0,97,96,95,30.46,30.33,0,0,1,0.01
2013-12-12,47.6,40.5,30.2,46.5,39.6,29.2,98,97,95,30.33,30.22,4,2,9,0.00
2013-12-13,53.2,49.2,42.8,49.3,46.9,41.2,95,92,82,30.22,30.04,5,2,10,0.06
2013-12-14,51.3,45.2,36.1,47.9,42.4,34.5,100,90,80,30.33,30.08,8,4,19,0.04
2013-12-15,53.0,50.9,44.3,51.7,49.4,42.7,96,95,91,30.20,30.02,9,4,20,0.22
2013-12-16,53.6,51.0,45.1,52.2,49.6,43.6,96,95,92,30.14,29.97,8,4,21,0.45
2013-12-17,44.8,42.2,39.9,43.5,41.1,38.9,100,96,95,30.29,30.00,1,0,2,0.22
2013-12-18,49.2,45.7,40.0,47.7,44.1,39.0,97,94,89,30.01,29.32,12,5,29,0.36
2013-12-19,47.7,41.8,35.5,46.0,38.9,34.2,95,90,74,29.89,29.34,5,2,7,0.17
2013-12-20,50.2,42.1,33.5,46.3,39.3,32.2,97,90,80,30.21,29.90,9,3,21,0.01
2013-12-21,52.1,50.0,46.2,50.1,48.0,42.2,95,93,86,30.09,29.75,10,6,22,0.36
2013-12-22,50.7,45.0,38.9,45.1,40.6,35.6,92,85,70,29.95,29.76,7,3,15,0.01
2013-12-23,52.1,45.2,39.7,50.4,42.9,36.5,95,91,88,29.95,28.88,10,3,15,0.99
2013-12-24,51.8,45.3,40.4,50.1,43.0,38.8,95,91,86,29.01,28.82,0,0,0,0.54
2013-12-25,43.3,38.9,36.8,41.1,37.4,35.4,96,94,91,29.19,28.95,0,0,0,0.06
2013-12-26,45.1,37.9,33.0,42.9,36.6,31.8,97,95,82,29.53,29.19,0,0,0,0.02
2013-12-27,51.4,47.1,42.7,50.0,42.9,37.3,95,86,76,29.29,29.04,0,0,0,0.16
2013-12-28,48.3,39.8,33.4,40.7,36.1,31.7,95,87,73,29.74,29.29,3,0,6,0.00
2013-12-29,46.2,37.5,30.4,42.8,35.1,29.1,97,91,77,30.11,29.74,7,2,13,0.01
2013-12-30,49.6,46.2,40.2,47.5,43.9,38.6,96,92,87,30.03,29.69,13,5,28,0.29
2013-12-31,50.5,45.8,40.6,47.6,43.8,38.4,96,92,89,29.87,29.57,10,5,20,0.17
2014-1-1,50.6,47.0,42.3,48.9,45.2,40.2,95,93,90,29.61,29.06,12,7,27,0.66
2014-1-2,50.6,46.6,41.1,47.6,44.1,39.8,96,91,80,29.48,29.09,10,3,18,0.22